[[{"header":{"parameterUnit":"m.s-1","parameterCategory":1,"la1":30.2991,"la2":30.254,"lo1":-89.0895,"lo2":-89.0444,"dx":0.0017,"dy":0.0017,"nx":28,"ny":28,"refTime":"2023-01-07T03:00:00:Z","depth":0,"parameterNumber":2,"parameterNumberName":"U-component_of_WINDS"},"data":[0,0,0,0,0,0,0,0,0,0,0,0,0,0,0,0,0,0,0,0,0,0,0,0,0,0,0,0,0,0,0,0,0,0,0,0,0,0,0,0,0,0,0,0,0,0,0,0,0,0,0,0,0,0,0,0,0,0,-0.8918,-0.8919,0,-0.8924,-0.8924,-0.8924,-0.8915,-0.8914,-0.8914,-0.8914,-0.8921,-0.8921,-0.8922,0,0,0,0,0,0,0,0,0,0,0,0,0,-0.8901,-0.8901,-0.8918,-0.8919,-0.8919,-0.8924,-0.8924,-0.8924,-0.8915,-0.8914,-0.8914,-0.8914,-0.8921,-0.8921,-0.8922,0,0,0,0,0,0,0,0,0,0,0,0,0,-0.8908,-0.8902,-0.8918,-0.8915,-0.8914,-0.8924,-0.8924,-0.8924,-0.8915,-0.8914,-0.8914,-0.8913,-0.892,-0.8921,-0.8922,-0.8936,0,0,-0.8924,-0.8924,0,0,0,0,0,0,0,0,-0.8907,-0.8908,-0.8915,-0.8915,-0.8915,-0.8918,-0.892,-0.8928,-0.8915,-0.8915,-0.8914,-0.8913,-0.892,-0.8921,-0.8923,-0.8936,-0.8936,-0.8924,-0.8924,-0.8925,-0.8925,0,0,0,0,0,0,0,-0.8907,-0.8908,-0.8921,-0.8915,-0.8915,-0.8913,-0.8913,-0.8922,-0.892,-0.8915,-0.8914,-0.8915,-0.892,-0.8922,-0.8923,-0.8937,-0.8924,-0.8925,-0.8925,-0.8925,-0.8961,-0.8961,0,0,0,0,0,0,-0.8907,-0.8908,-0.892,-0.8921,-0.891,-0.8914,-0.8914,-0.8918,-0.892,-0.892,-0.8915,-0.8914,-0.8921,-0.8922,-0.8923,-0.8939,-0.8925,-0.8925,-0.8926,-0.896,-0.8961,-0.8962,0,0,0,0,0,0,-0.8906,-0.8908,-0.892,-0.8914,-0.8916,-0.8914,-0.8918,-0.8918,-0.892,-0.892,-0.892,-0.8918,-0.8921,-0.8922,-0.8933,-0.8939,-0.8926,-0.8926,-0.896,-0.8961,-0.8961,-0.8972,0,0,0,0,0,0,-0.8906,-0.8908,-0.8913,-0.8914,-0.8916,-0.8929,-0.8919,-0.8918,-0.8921,-0.892,-0.8923,-0.8923,-0.8921,-0.8932,-0.8933,-0.894,-0.8927,-0.8959,-0.896,-0.8961,-0.8971,-0.8973,-0.8974,0,0,0,0,0,-0.8905,-0.8916,-0.8913,-0.8915,-0.8922,-0.8929,-0.893,-0.8928,-0.8922,-0.8927,-0.8927,-0.8923,-0.8939,-0.8933,-0.8935,-0.8942,-0.8959,-0.896,-0.8961,-0.897,-0.8972,-0.8974,0,0,0,0,0,0,-0.8916,-0.8916,-0.8913,-0.8924,-0.8927,-0.8928,-0.8934,-0.893,-0.8935,-0.8934,-0.8931,-0.8931,-0.8942,-0.8943,-0.8936,-0.8955,-0.8948,-0.8949,-0.8954,-0.8956,-0.8958,-0.8957,-0.8928,0,0,0,0,0,-0.892,-0.8925,-0.8925,-0.8935,-0.8937,-0.8935,-0.8938,-0.8936,-0.8939,-0.894,-0.8941,-0.8944,-0.8949,-0.8953,-0.8958,-0.8971,-0.8971,-0.8977,-0.8979,-0.8981,-0.8982,-0.8988,-0.899,-0.8965,-0.8965,-0.8965,0,0,-0.8927,-0.8928,-0.8932,-0.8937,-0.8939,-0.8945,-0.8936,-0.8943,-0.8947,-0.8941,-0.895,-0.8951,-0.8954,-0.8966,-0.8971,-0.8967,-0.8989,-0.8982,-0.8983,-0.8983,-0.8989,-0.8992,-0.8994,-0.8966,-0.8966,-0.8966,0,0,-0.8943,-0.8945,-0.8953,-0.8955,-0.8957,-0.8956,-0.8958,-0.896,-0.896,-0.8969,-0.8964,-0.897,-0.898,-0.8982,-0.8985,-0.9002,-0.8998,-0.9004,-0.9013,-0.902,-0.9021,-0.9023,-0.9029,-0.9031,-0.9005,-0.9005,-0.9006,0,-0.8952,-0.896,-0.8958,-0.8964,-0.8967,-0.8961,-0.8969,-0.8972,-0.8976,-0.8978,-0.8974,-0.8986,-0.8988,-0.8999,-0.9003,-0.9006,-0.9008,-0.9003,-0.9021,-0.9023,-0.9025,-0.903,-0.9032,-0.9006,-0.9006,-0.9006,-0.9006,0,-0.8971,-0.8977,-0.8983,-0.8987,-0.899,-0.8998,-0.8996,-0.9,-0.8998,-0.8998,-0.9007,-0.9009,-0.9014,-0.9017,-0.9015,-0.9029,-0.9026,-0.9022,-0.9014,-0.9028,-0.9032,-0.9034,-0.9007,-0.9007,-0.9007,-0.9006,0,0,-0.8993,-0.8995,-0.8997,-0.8998,-0.9001,-0.9006,-0.9013,-0.9018,-0.9021,-0.9025,-0.9031,-0.9039,-0.9035,-0.9038,-0.9037,-0.9042,-0.9055,-0.9037,-0.9037,-0.9039,-0.9069,-0.9071,-0.9073,-0.9053,-0.9053,-0.9053,-0.9068,0,-0.9008,-0.902,-0.9018,-0.903,-0.9035,-0.903,-0.9036,-0.9039,-0.9039,-0.9044,-0.9044,-0.905,-0.9045,-0.9046,-0.9052,-0.9052,-0.9061,-0.9051,-0.9058,-0.9058,-0.9056,-0.9076,-0.9078,-0.9092,-0.907,-0.907,-0.9071,0,-0.9027,-0.9031,-0.9043,-0.9044,-0.9046,-0.9052,-0.9056,-0.9061,-0.9064,-0.9063,-0.9067,-0.9064,-0.9072,-0.9065,-0.9075,-0.9069,-0.9072,-0.9073,-0.9073,-0.9072,-0.9064,-0.9075,-0.9096,-0.9098,-0.9074,-0.9073,-0.9073,0,-0.9041,-0.9049,-0.9057,-0.9058,-0.906,-0.9064,-0.9066,-0.9068,-0.9071,-0.9075,-0.9077,-0.9082,-0.9084,-0.9089,-0.9087,-0.9083,-0.9098,-0.9091,-0.9098,-0.9098,-0.91,-0.91,-0.9121,-0.9104,-0.9104,-0.9104,-0.9104,0,-0.9057,-0.9064,-0.9063,-0.9067,-0.9075,-0.9073,-0.9082,-0.9082,-0.9085,-0.909,-0.9087,-0.9091,-0.909,-0.9095,-0.9095,-0.9103,-0.9105,-0.9105,-0.9104,-0.9104,-0.9104,-0.9105,-0.9104,-0.9104,-0.9104,-0.9104,-0.9104,0,-0.9073,-0.9072,-0.908,-0.9082,-0.9082,-0.9088,-0.9089,-0.9094,-0.9094,-0.9101,-0.9102,-0.9102,-0.9108,-0.9108,-0.9115,-0.9114,-0.9124,-0.9123,-0.9123,-0.9122,-0.9128,-0.9127,-0.915,-0.9153,-0.9135,-0.9135,-0.9135,0,-0.9083,-0.9088,-0.909,-0.9093,-0.9094,-0.9099,-0.9102,-0.91,-0.9104,-0.9107,-0.9111,-0.9117,-0.9121,-0.9131,-0.9132,-0.9137,-0.9135,-0.9143,-0.9136,-0.9136,-0.9134,-0.9133,-0.9134,-0.9144,-0.9144,-0.9144,-0.9144,0,-0.91,-0.9099,-0.9103,-0.9107,-0.911,-0.9114,-0.9116,-0.9119,-0.9118,-0.9122,-0.9127,-0.9131,-0.9137,-0.9143,-0.9148,-0.9149,-0.9147,-0.9147,-0.9148,-0.9148,-0.9147,-0.9147,-0.9125,-0.9146,-0.9146,-0.9146,-0.9146,-0.9146,-0.9112,-0.9117,-0.9118,-0.9123,-0.9125,-0.9128,-0.9132,-0.9132,-0.9137,-0.9142,-0.9141,-0.9147,-0.915,-0.9156,-0.9159,-0.9164,-0.9161,-0.9164,-0.9164,-0.9164,-0.9165,-0.9147,-0.9165,-0.9165,-0.9165,-0.9165,-0.9165,0,-0.9128,-0.9129,-0.9134,-0.9137,-0.9141,-0.9138,-0.9141,-0.9144,-0.915,-0.9153,-0.9157,-0.9163,-0.9168,-0.917,-0.9175,-0.9179,-0.9178,-0.918,-0.9179,-0.918,-0.9167,-0.9165,-0.9181,-0.9181,-0.9181,-0.9181,-0.9181,-0.9181,-0.9137,-0.9144,-0.9144,-0.9152,-0.9153,-0.9158,-0.916,-0.9163,-0.9165,-0.9172,-0.9176,-0.9177,-0.9179,-0.9185,-0.919,-0.919,-0.9192,-0.9194,-0.9194,-0.9182,-0.9181,-0.9179,-0.9177,-0.9195,-0.9195,-0.9206,-0.9206,-0.9206]},{"header":{"parameterUnit":"m.s-1","parameterCategory":1,"la1":30.2991,"la2":30.254,"lo1":-89.0895,"lo2":-89.0444,"dx":0.0017,"dy":0.0017,"nx":28,"ny":28,"refTime":"2023-01-07T03:00:00:Z","depth":0,"parameterNumber":3,"parameterNumberName":"V-component_of_WINDS"},"data":[0,0,0,0,0,0,0,0,0,0,0,0,0,0,0,0,0,0,0,0,0,0,0,0,0,0,0,0,0,0,0,0,0,0,0,0,0,0,0,0,0,0,0,0,0,0,0,0,0,0,0,0,0,0,0,0,0,0,1.2881,1.2882,0,1.2907,1.2907,1.2908,1.2914,1.2914,1.2914,1.2914,1.294,1.2941,1.2942,0,0,0,0,0,0,0,0,0,0,0,0,0,1.2839,1.284,1.2881,1.2882,1.2882,1.2907,1.2907,1.2908,1.2914,1.2914,1.2914,1.2914,1.294,1.2941,1.2942,0,0,0,0,0,0,0,0,0,0,0,0,0,1.286,1.284,1.2881,1.2888,1.2889,1.2907,1.2907,1.2908,1.2915,1.2914,1.2914,1.2914,1.294,1.2941,1.2942,1.2955,0,0,1.2946,1.2947,0,0,0,0,0,0,0,0,1.2859,1.2862,1.2887,1.2888,1.2889,1.2907,1.2902,1.2924,1.2915,1.2905,1.2914,1.2914,1.293,1.2932,1.2937,1.2956,1.2957,1.2946,1.2947,1.2948,1.2948,0,0,0,0,0,0,0,1.2858,1.2861,1.2891,1.2887,1.2889,1.2891,1.2893,1.2906,1.2918,1.2906,1.2906,1.2909,1.293,1.2936,1.2938,1.2958,1.2946,1.2947,1.2948,1.2949,1.2989,1.299,0,0,0,0,0,0,1.2855,1.286,1.2891,1.2892,1.2873,1.2892,1.2895,1.2902,1.2918,1.292,1.2909,1.2909,1.2934,1.2936,1.2939,1.2955,1.2948,1.2949,1.295,1.2989,1.2989,1.299,0,0,0,0,0,0,1.2854,1.2858,1.289,1.2876,1.288,1.2892,1.29,1.2902,1.2908,1.2921,1.2923,1.2913,1.2934,1.2937,1.2951,1.2956,1.2949,1.2951,1.2989,1.2989,1.299,1.2988,0,0,0,0,0,0,1.2853,1.2857,1.2862,1.2876,1.2881,1.2901,1.2901,1.2903,1.291,1.291,1.2925,1.2927,1.2934,1.2949,1.2952,1.2958,1.2952,1.2988,1.2989,1.2989,1.2988,1.2988,1.2989,0,0,0,0,0,1.2851,1.286,1.2862,1.2866,1.2887,1.2902,1.2904,1.2912,1.291,1.2916,1.2924,1.2927,1.2955,1.2951,1.2954,1.296,1.2988,1.2989,1.2989,1.2987,1.2988,1.2989,0,0,0,0,0,0,1.2846,1.2862,1.2864,1.2878,1.2888,1.2903,1.2909,1.2912,1.2923,1.2923,1.2932,1.2935,1.2949,1.2956,1.2951,1.2974,1.2972,1.2973,1.2969,1.297,1.297,1.2969,1.2953,0,0,0,0,0,1.2846,1.2857,1.287,1.2881,1.2886,1.2897,1.2903,1.2908,1.2919,1.2924,1.2933,1.2944,1.2956,1.2963,1.2974,1.2989,1.2992,1.2995,1.2995,1.2996,1.2997,1.3006,1.3008,1.2992,1.2992,1.2992,0,0,1.2848,1.2858,1.2863,1.288,1.2889,1.29,1.29,1.2912,1.292,1.2926,1.294,1.2947,1.296,1.2974,1.2981,1.2981,1.3002,1.2997,1.2997,1.2998,1.3007,1.3009,1.301,1.2993,1.2993,1.2992,0,0,1.2855,1.2863,1.2874,1.2883,1.2896,1.2903,1.2905,1.2919,1.2924,1.2939,1.2943,1.2954,1.2973,1.2982,1.2989,1.3001,1.3004,1.3005,1.3008,1.3017,1.3018,1.302,1.3025,1.3026,1.3006,1.3006,1.3006,0,1.2855,1.2871,1.2879,1.289,1.2898,1.2904,1.2915,1.2923,1.2939,1.2944,1.2943,1.2968,1.2977,1.2994,1.2997,1.3003,1.3007,1.3003,1.3017,1.3019,1.302,1.3025,1.3027,1.3006,1.3006,1.3006,1.3006,0,1.2871,1.2882,1.2889,1.2905,1.2913,1.2924,1.2934,1.2942,1.2946,1.2953,1.2968,1.2979,1.2993,1.2998,1.3002,1.3016,1.3015,1.3016,1.3014,1.3021,1.3026,1.3028,1.3006,1.3006,1.3006,1.3006,0,0,1.2876,1.2896,1.2898,1.2906,1.2921,1.293,1.2942,1.2956,1.2963,1.2974,1.2984,1.3001,1.3002,1.301,1.3015,1.3023,1.3033,1.3022,1.3023,1.3025,1.305,1.305,1.3052,1.3035,1.3035,1.3035,1.3049,0,1.2886,1.2907,1.2914,1.2932,1.2943,1.2949,1.2959,1.297,1.2977,1.2988,1.2996,1.3008,1.3008,1.3013,1.3021,1.303,1.3038,1.3029,1.3045,1.3046,1.3043,1.3055,1.3055,1.3067,1.3051,1.3052,1.3052,0,1.29,1.2912,1.293,1.2945,1.295,1.2959,1.2973,1.2983,1.2996,1.3001,1.301,1.3015,1.3028,1.3025,1.3044,1.3037,1.3045,1.305,1.3051,1.3053,1.305,1.3058,1.3071,1.3074,1.3055,1.3055,1.3054,0,1.2903,1.2923,1.2937,1.2943,1.2961,1.2967,1.2975,1.2987,1.2995,1.3007,1.3013,1.3026,1.3034,1.3044,1.3053,1.305,1.3071,1.3069,1.3076,1.3076,1.3081,1.308,1.3096,1.3084,1.3084,1.3084,1.3084,0,1.2914,1.2925,1.2939,1.2947,1.2961,1.297,1.2983,1.299,1.3002,1.3012,1.3018,1.3028,1.3039,1.305,1.3057,1.3072,1.3075,1.308,1.3082,1.308,1.308,1.3085,1.3085,1.3085,1.3084,1.3084,1.3084,0,1.2919,1.2929,1.2944,1.296,1.2964,1.2973,1.2986,1.2995,1.3003,1.3017,1.3021,1.3033,1.3047,1.3057,1.3075,1.3079,1.3096,1.3097,1.3092,1.3093,1.31,1.31,1.3121,1.3124,1.3109,1.3109,1.3109,0,1.2926,1.2935,1.2951,1.2959,1.2966,1.2979,1.2987,1.2996,1.3005,1.3021,1.3028,1.3043,1.3055,1.3077,1.3088,1.3102,1.3104,1.311,1.3106,1.3104,1.3105,1.3105,1.3106,1.3111,1.3111,1.3111,1.3112,0,1.2937,1.2941,1.2953,1.2967,1.2977,1.2989,1.3,1.3006,1.3018,1.3027,1.3042,1.3051,1.307,1.3085,1.31,1.3108,1.3112,1.3113,1.3115,1.3114,1.3111,1.3114,1.3094,1.3112,1.3112,1.3112,1.3112,1.3112,1.2943,1.2952,1.2965,1.2979,1.2988,1.2999,1.3009,1.3018,1.303,1.3047,1.3051,1.3067,1.308,1.3101,1.311,1.3122,1.3122,1.3125,1.3126,1.3127,1.3128,1.3108,1.3125,1.3125,1.3125,1.3125,1.3125,0,1.2955,1.2964,1.2977,1.2993,1.3004,1.3006,1.302,1.3029,1.3042,1.3054,1.3066,1.3084,1.3098,1.311,1.3125,1.3133,1.3136,1.3137,1.3137,1.3139,1.3127,1.3123,1.3135,1.3135,1.3135,1.3135,1.3135,1.3135,1.2963,1.2978,1.2984,1.3005,1.3014,1.3029,1.3036,1.3047,1.3057,1.3076,1.3088,1.3096,1.3108,1.3125,1.3138,1.3142,1.3147,1.3148,1.3152,1.3141,1.314,1.3139,1.3136,1.3149,1.3149,1.3164,1.3164,1.3164]}]]